Zurück zum Katalog

STARLINK-33672

AktivKommunikationVLEO
NORAD 63326·PAYLOAD·🇺🇸 United States

Gestartet Mar 18, 2025 von Cape Canaveral Space Force Station

Loading…

Nächste Überflüge (nächste 24 Stunden)

TLE

AktuellSource: CelesTrak SupGP

Epoche: Sep 15, 2026, 03:26 UTC

1 63326C 25057V   26258.14354167 -.00014492  00000+0 -52487-3 0  2581
2 63326  43.0040  40.6566 0001903 268.6079 129.2649 15.27586405    18

Verfolge STARLINK-33672 in Echtzeit mit AllMySat

Download on the App Store